When you browse on this site, cookies collect data to enhance your experience and personalize the content and advertising you see.
Visit our Privacy Policy to learn more. By continuing to use the site, you agree to this use of cookies and data.
  • In Czech Republic
  • List of Countries
  • For 7 days
  • Water Temperature
  • Satellite Maps
  • Weather Map
  • Weather Widgets
  • user-avatar
    Login

    Hourly Weather Eldoret

    Today, 17 January, Thursday

    Time Temperature Precipitation Wind Pressure Humidity
    00:00 +14°C° 0.1 mm 1 mps 597 mmHg 94%
    01:00 +14°C° 0.1 mm 1 mps 596 mmHg 94%
    02:00 +14°C° 0.1 mm 1 mps 596 mmHg 94%
    03:00 +13°C° 0 mm 1 mps 596 mmHg 93%
    04:00 +13°C° 0 mm 1 mps 596 mmHg 93%
    05:00 +13°C° 0 mm 1 mps 596 mmHg 93%
    06:00 +15°C° 0 mm 1 mps 597 mmHg 84%
    07:00 +18°C° 0 mm 1 mps 598 mmHg 75%
    08:00 +20°C° 0 mm 1 mps 599 mmHg 66%
    09:00 +21°C° 0.2 mm 2 mps 599 mmHg 57%
    10:00 +24°C° 0.2 mm 2 mps 600 mmHg 49%
    11:00 +26°C° 0.2 mm 2 mps 600 mmHg 41%
    12:00 +25°C° 0.2 mm 2 mps 599 mmHg 44%
    13:00 +25°C° 0.2 mm 2 mps 598 mmHg 47%
    14:00 +24°C° 0.2 mm 2 mps 598 mmHg 50%
    15:00 +23°C° 0.4 mm 2 mps 597 mmHg 57%
    16:00 +21°C° 0.4 mm 1 mps 596 mmHg 63%
    17:00 +20°C° 0.4 mm 1 mps 596 mmHg 70%
    18:00 +19°C° 0.4 mm 1 mps 596 mmHg 74%
    19:00 +16°C° 0.4 mm 0 mps 596 mmHg 79%
    20:00 +16°C° 0.4 mm 0 mps 596 mmHg 83%
    21:00 +15°C° 0 mm 0 mps 596 mmHg 85%
    22:00 +15°C° 0 mm 1 mps 596 mmHg 87%
    23:00 +14°C° 0 mm 1 mps 596 mmHg 89%

    Tomorrow, 18 January, Friday

    Time Temperature Precipitation Wind Pressure Humidity
    00:00 +14°C° 0 mm 1 mps 596 mmHg 89%
    01:00 +14°C° 0 mm 1 mps 595 mmHg 89%
    02:00 +13°C° 0 mm 1 mps 595 mmHg 89%
    03:00 +13°C° 0 mm 1 mps 595 mmHg 90%
    04:00 +13°C° 0 mm 1 mps 595 mmHg 91%
    05:00 +13°C° 0 mm 1 mps 595 mmHg 92%
    06:00 +15°C° 0 mm 2 mps 596 mmHg 82%
    07:00 +17°C° 0 mm 2 mps 598 mmHg 72%
    08:00 +20°C° 0 mm 2 mps 599 mmHg 63%
    09:00 +23°C° 0 mm 2 mps 599 mmHg 52%
    10:00 +25°C° 0 mm 2 mps 600 mmHg 42%
    11:00 +28°C° 0 mm 3 mps 601 mmHg 32%
    12:00 +28°C° 0 mm 3 mps 600 mmHg 32%
    13:00 +27°C° 0 mm 3 mps 599 mmHg 33%
    14:00 +27°C° 0 mm 3 mps 598 mmHg 33%
    15:00 +26°C° 0 mm 2 mps 597 mmHg 39%
    16:00 +24°C° 0 mm 2 mps 597 mmHg 45%
    17:00 +22°C° 0 mm 1 mps 596 mmHg 51%
    18:00 +21°C° 0.1 mm 1 mps 596 mmHg 55%
    19:00 +20°C° 0.1 mm 1 mps 597 mmHg 59%
    20:00 +19°C° 0.1 mm 1 mps 597 mmHg 64%
    21:00 +19°C° 0.1 mm 1 mps 597 mmHg 66%
    22:00 +18°C° 0.1 mm 1 mps 597 mmHg 67%
    23:00 +18°C° 0.1 mm 1 mps 597 mmHg 69%

    Day after tomorrow, 19 January, Saturday

    Time Temperature Precipitation Wind Pressure Humidity
    00:00 +16°C° 0 mm 1 mps 597 mmHg 72%
    01:00 +15°C° 0 mm 2 mps 596 mmHg 75%
    02:00 +14°C° 0 mm 2 mps 595 mmHg 78%
    03:00 +14°C° 0 mm 2 mps 595 mmHg 80%
    04:00 +14°C° 0 mm 2 mps 595 mmHg 82%
    05:00 +14°C° 0 mm 2 mps 595 mmHg 84%
    06:00 +16°C° 0 mm 2 mps 597 mmHg 73%
    07:00 +18°C° 0 mm 3 mps 598 mmHg 62%
    08:00 +20°C° 0 mm 3 mps 599 mmHg 51%
    09:00 +24°C° 0 mm 3 mps 600 mmHg 43%
    10:00 +26°C° 0 mm 3 mps 600 mmHg 35%
    11:00 +28°C° 0 mm 3 mps 601 mmHg 26%
    12:00 +28°C° 0 mm 2 mps 600 mmHg 25%
    13:00 +29°C° 0 mm 2 mps 599 mmHg 23%
    14:00 +29°C° 0 mm 2 mps 599 mmHg 22%
    15:00 +27°C° 0 mm 2 mps 598 mmHg 29%
    16:00 +25°C° 0 mm 2 mps 597 mmHg 37%
    17:00 +23°C° 0 mm 1 mps 597 mmHg 44%
    18:00 +22°C° 0.4 mm 1 mps 597 mmHg 51%
    19:00 +21°C° 0.4 mm 1 mps 597 mmHg 58%
    20:00 +20°C° 0.4 mm 1 mps 598 mmHg 65%
    21:00 +19°C° 0.1 mm 1 mps 598 mmHg 65%
    22:00 +18°C° 0.1 mm 1 mps 598 mmHg 65%
    23:00 +18°C° 0.1 mm 1 mps 598 mmHg 65%

    20 January, Sunday

    Time Temperature Precipitation Wind Pressure Humidity
    00:00 +16°C° 0 mm 1 mps 597 mmHg 66%
    01:00 +15°C° 0 mm 1 mps 597 mmHg 67%
    02:00 +15°C° 0 mm 1 mps 596 mmHg 68%
    03:00 +14°C° 0 mm 1 mps 596 mmHg 69%
    04:00 +14°C° 0 mm 2 mps 596 mmHg 71%
    05:00 +14°C° 0 mm 2 mps 596 mmHg 72%
    06:00 +16°C° 0 mm 2 mps 598 mmHg 65%
    07:00 +18°C° 0 mm 2 mps 599 mmHg 57%
    08:00 +20°C° 0 mm 2 mps 600 mmHg 50%
    09:00 +23°C° 0 mm 2 mps 600 mmHg 43%
    10:00 +26°C° 0 mm 2 mps 601 mmHg 36%
    11:00 +28°C° 0 mm 2 mps 601 mmHg 29%
    12:00 +28°C° 0 mm 2 mps 600 mmHg 27%
    13:00 +28°C° 0 mm 2 mps 600 mmHg 25%
    14:00 +29°C° 0 mm 2 mps 599 mmHg 23%
    15:00 +27°C° 0 mm 2 mps 598 mmHg 29%
    16:00 +25°C° 0 mm 1 mps 598 mmHg 34%
    17:00 +23°C° 0 mm 1 mps 597 mmHg 39%
    18:00 +22°C° 0 mm 1 mps 597 mmHg 42%
    19:00 +21°C° 0 mm 1 mps 598 mmHg 46%
    20:00 +20°C° 0 mm 1 mps 598 mmHg 49%
    21:00 +20°C° 0 mm 1 mps 598 mmHg 47%
    22:00 +20°C° 0 mm 1 mps 598 mmHg 45%
    23:00 +19°C° 0 mm 1 mps 599 mmHg 43%

    21 January, Monday

    Time Temperature Precipitation Wind Pressure Humidity
    00:00 +17°C° 0 mm 2 mps 598 mmHg 48%
    01:00 +16°C° 0 mm 2 mps 597 mmHg 52%
    02:00 +14°C° 0 mm 2 mps 596 mmHg 57%
    03:00 +14°C° 0 mm 2 mps 596 mmHg 61%
    04:00 +14°C° 0 mm 2 mps 596 mmHg 66%
    05:00 +14°C° 0 mm 2 mps 596 mmHg 70%
    06:00 +16°C° 0 mm 2 mps 598 mmHg 60%
    07:00 +19°C° 0 mm 2 mps 599 mmHg 51%
    08:00 +21°C° 0 mm 2 mps 600 mmHg 42%
    09:00 +24°C° 0 mm 2 mps 601 mmHg 36%
    10:00 +26°C° 0 mm 2 mps 601 mmHg 30%
    11:00 +28°C° 0 mm 2 mps 601 mmHg 24%
    12:00 +28°C° 0 mm 2 mps 600 mmHg 24%
    13:00 +28°C° 0 mm 2 mps 600 mmHg 24%
    14:00 +28°C° 0 mm 2 mps 599 mmHg 25%
    15:00 +26°C° 0 mm 2 mps 598 mmHg 30%
    16:00 +25°C° 0 mm 1 mps 597 mmHg 35%
    17:00 +23°C° 0 mm 1 mps 597 mmHg 41%
    18:00 +22°C° 0 mm 1 mps 597 mmHg 43%
    19:00 +21°C° 0 mm 1 mps 598 mmHg 45%
    20:00 +21°C° 0 mm 1 mps 598 mmHg 47%
    21:00 +20°C° 0 mm 1 mps 598 mmHg 48%
    22:00 +18°C° 0 mm 1 mps 597 mmHg 49%
    23:00 +16°C° 0 mm 2 mps 597 mmHg 50%

    22 January, Tuesday

    Time Temperature Precipitation Wind Pressure Humidity
    00:00 +16°C° 0 mm 2 mps 597 mmHg 54%
    01:00 +15°C° 0 mm 2 mps 596 mmHg 58%
    02:00 +15°C° 0 mm 2 mps 596 mmHg 63%
    03:00 +14°C° 0 mm 2 mps 596 mmHg 64%
    04:00 +14°C° 0 mm 2 mps 596 mmHg 65%
    05:00 +14°C° 0 mm 2 mps 596 mmHg 67%
    06:00 +17°C° 0 mm 3 mps 597 mmHg 58%
    07:00 +19°C° 0 mm 3 mps 599 mmHg 49%
    08:00 +21°C° 0 mm 3 mps 600 mmHg 41%
    09:00 +24°C° 0 mm 3 mps 600 mmHg 35%
    10:00 +26°C° 0 mm 2 mps 600 mmHg 29%
    11:00 +29°C° 0 mm 2 mps 601 mmHg 23%
    12:00 +29°C° 0 mm 2 mps 600 mmHg 21%
    13:00 +30°C° 0 mm 2 mps 600 mmHg 20%
    14:00 +31°C° 0 mm 2 mps 599 mmHg 18%
    15:00 +29°C° 0 mm 2 mps 599 mmHg 24%
    16:00 +27°C° 0 mm 2 mps 598 mmHg 30%
    17:00 +25°C° 0 mm 1 mps 597 mmHg 35%
    18:00 +23°C° 0 mm 1 mps 597 mmHg 41%
    19:00 +22°C° 0 mm 1 mps 597 mmHg 47%
    20:00 +20°C° 0 mm 1 mps 597 mmHg 53%
    21:00 +19°C° 0 mm 2 mps 597 mmHg 52%
    22:00 +18°C° 0 mm 2 mps 598 mmHg 50%
    23:00 +18°C° 0 mm 3 mps 598 mmHg 49%
    Show more